Varadero, Cuba

7:39 PM CST on December 14, 2018 (GMT -0500)
Juan G. Gomez International

Weather History for MUVR - October, 2018

Change the Weather History Date:

Friday, October 12, 2018

  Actual Average Record
Temperature  
Mean Temperature 80 °F -  
Max Temperature 89 °F 81 °F 91 °F (2006)
Min Temperature 71 °F 67 °F 68 °F (2002)
Cooling Degree Days 15    
Growing Degree Days 30 (Base 50)    
Moisture  
Dew Point 73 °F    
Average Humidity 85    
Maximum Humidity 100    
Minimum Humidity 55    
Precipitation  
Precipitation 0.00 in - - ()
Sea Level Pressure  
Sea Level Pressure 29.89 in    
Wind  
Wind Speed 4 mph ()    
Max Wind Speed 10 mph    
Max Gust Speed -    
Visibility 5.3 miles    
Events      
Averages and records for this station are not official NWS values.
T = Trace of Precipitation, MM = Missing Value Source: Averaged Metar Reports

Daily Weather History Graph

Daily Weather History Graph

Search for Another Location

Airport or City:

Astronomy

Oct. 12, 2018 Rise Set
Actual Time 7:21 AM CDT 7:02 PM CDT
Civil Twilight 6:58 AM CDT 7:25 PM CDT
Nautical Twilight 6:32 AM CDT 7:51 PM CDT
Astronomical Twilight 6:06 AM CDT 8:17 PM CDT
Moon 10:36 AM CDT (10/12) 9:58 PM CDT (10/12)
Length of Visible Light 12h 26m
Length of Day
11h 41m
Waxing Crescent, 14% of the Moon is Illuminated
Oct 12
Waxing Crescent
Oct 16
First Quarter
Oct 24
Full
Oct 31
Last Quarter
Nov 7
New

Hourly Weather History & Observations

Time (CDT) Temp. Heat Index Dew Point Humidity Pressure Visibility Wind Dir Wind Speed Gust Speed Precip Events Conditions
12:50 AM 73.4 °F - 73.4 °F 100% 29.92 in 5.0 mi SSE 4.6 mph - N/A   Partly Cloudy
1:50 AM 73.4 °F - 73.4 °F 100% 29.89 in 5.0 mi SSE 4.6 mph - N/A   Partly Cloudy
2:50 AM 73.4 °F - 71.6 °F 94% 29.89 in 5.0 mi South 4.6 mph - N/A   Partly Cloudy
3:50 AM 71.6 °F - 71.6 °F 100% 29.89 in 5.0 mi South 4.6 mph - N/A   Partly Cloudy
4:50 AM 73.4 °F - 71.6 °F 94% 29.89 in 5.0 mi SSE 3.5 mph - N/A   Partly Cloudy
5:50 AM 71.6 °F - 71.6 °F 100% 29.89 in 5.0 mi SSE 4.6 mph - N/A   Partly Cloudy
6:50 AM 71.6 °F - 71.6 °F 100% 29.89 in 5.0 mi South 3.5 mph - N/A   Partly Cloudy
7:50 AM 71.6 °F - 71.6 °F 100% 29.92 in 5.0 mi Variable 1.2 mph - N/A   Partly Cloudy
8:50 AM 75.2 °F - 75.2 °F 100% 29.92 in 5.6 mi South 2.3 mph - N/A   Partly Cloudy
9:50 AM 80.6 °F 87.1 °F 77.0 °F 89% 29.92 in 5.6 mi Variable 2.3 mph - N/A   Partly Cloudy
10:50 AM 84.2 °F 90.9 °F 73.4 °F 70% 29.92 in 5.6 mi Variable 2.3 mph - N/A   Scattered Clouds
11:50 AM 87.8 °F 95.6 °F 73.4 °F 62% 29.92 in 5.6 mi Variable 2.3 mph - N/A   Scattered Clouds
12:50 PM 87.8 °F 95.6 °F 73.4 °F 62% 29.92 in 5.6 mi Variable 3.5 mph - N/A   Scattered Clouds
1:50 PM 89.6 °F 96.2 °F 71.6 °F 55% 29.89 in 5.6 mi NNW 10.4 mph - N/A   Scattered Clouds
2:50 PM 87.8 °F 95.6 °F 73.4 °F 62% 29.86 in 5.6 mi North 6.9 mph - N/A   Scattered Clouds
3:50 PM 87.8 °F 93.8 °F 71.6 °F 58% 29.86 in 5.6 mi North 8.1 mph - N/A   Scattered Clouds
4:50 PM 86.0 °F 93.4 °F 73.4 °F 66% 29.83 in 5.6 mi NNE 8.1 mph - N/A   Partly Cloudy
5:50 PM 84.2 °F 92.3 °F 75.2 °F 74% 29.83 in 5.6 mi NNE 8.1 mph - N/A   Partly Cloudy
6:50 PM 80.6 °F 86.2 °F 75.2 °F 84% 29.83 in 5.6 mi NNE 4.6 mph - N/A   Partly Cloudy
7:50 PM 77.0 °F - 75.2 °F 94% 29.86 in 5.0 mi East 3.5 mph - N/A   Partly Cloudy
8:50 PM 77.0 °F - 75.2 °F 94% 29.86 in 5.0 mi ENE 3.5 mph - N/A   Partly Cloudy
9:50 PM 75.2 °F - 73.4 °F 94% 29.89 in 5.6 mi East 4.6 mph - N/A   Partly Cloudy
10:50 PM 75.2 °F - 73.4 °F 94% 29.89 in 5.0 mi East 5.8 mph - N/A   Partly Cloudy
11:50 PM 75.2 °F - 73.4 °F 94% 29.89 in 5.0 mi South 4.6 mph - N/A   Partly Cloudy